Weather History for PAHN - March, 2014

Change the Weather History Date:

Saturday, March 8, 2014

  Actual Average Record
Temperature  
Mean Temperature 22 °F -  
Max Temperature 24 °F 30 °F 45 °F (1977)
Min Temperature 21 °F 23 °F 5 °F (1974)
Degree Days  
Heating Degree Days 42    
Moisture  
Dew Point 19 °F    
Average Humidity 88    
Maximum Humidity 92    
Minimum Humidity 85    
Precipitation  
Precipitation 0.57 in - - ()
Sea Level Pressure  
Sea Level Pressure 29.27 in    
Wind  
Wind Speed 12 mph (WNW)    
Max Wind Speed 16 mph    
Max Gust Speed 24 mph    
Visibility 2 miles    
Events Fog , Snow    
Averages and records for this station are not official NWS values.
T = Trace of Precipitation, MM = Missing Value Source: NWS Daily Summary

Daily Weather History Graph

Daily Weather History Graph

Search for Another Location

Airport or City:

Trip Planner

Search our weather history database for the weather conditions in past years. The results will help you decide how hot, cold, wet, or windy it might be!

Date:

Astronomy

Mar. 08, 2014 Rise Set
Actual Time 6:38 AM AKST 5:48 PM AKST
Civil Twilight 5:57 AM AKST 6:28 PM AKST
Nautical Twilight 5:10 AM AKST 7:16 PM AKST
Astronomical Twilight 4:21 AM AKST 8:05 PM AKST
Moon 9:55 AM AKST (3/8) 2:22 AM AKST (3/8)
Length of Visible Light 12h 31m
Length of Day
11h 10m
First Quarter, 53% of the Moon is Illuminated
Mar 8
First Quarter
Mar 16
Full
Mar 23
Last Quarter
Mar 30
New
Apr 7
First Quarter

Hourly Weather History & Observations

Time (AKST) Temp. Windchill Dew Point Humidity Pressure Visibility Wind Dir Wind Speed Gust Speed Precip Events Conditions
12:07 AM 21.9 °F 11.0 °F 18.0 °F 85% 29.46 in 2.5 mi WNW 10.4 mph - 0.00 in Snow Light Snow
12:11 AM 21.9 °F 10.4 °F 18.0 °F 85% 29.46 in 1.8 mi NW 11.5 mph - 0.00 in Snow Light Snow
12:54 AM 21.9 °F 9.8 °F 18.0 °F 85% 29.47 in 1.5 mi NW 12.7 mph - 0.01 in Snow Light Snow
1:19 AM 21.9 °F 10.4 °F 18.0 °F 85% 29.46 in 1.0 mi WNW 11.5 mph - 0.00 in Snow Light Snow
1:27 AM 21.0 °F 8.6 °F 18.0 °F 88% 29.45 in 1.5 mi WNW 12.7 mph - 0.00 in Snow Light Snow
1:33 AM 21.0 °F 9.3 °F 18.0 °F 88% 29.46 in 2.5 mi NW 11.5 mph - 0.00 in Snow Light Snow
1:42 AM 21.0 °F 9.3 °F 18.0 °F 88% 29.45 in 5.0 mi WNW 11.5 mph - 0.00 in Snow Light Snow
1:54 AM 21.0 °F 9.9 °F 18.0 °F 88% 29.46 in 8.0 mi NW 10.4 mph - 0.00 in Snow Light Snow
2:27 AM 21.0 °F 10.6 °F 18.0 °F 88% 29.43 in 5.0 mi NW 9.2 mph - 0.00 in Snow Light Snow
2:37 AM 21.0 °F 8.6 °F 18.0 °F 88% 29.43 in 1.8 mi NW 12.7 mph - 0.00 in Snow Light Snow
2:54 AM 21.9 °F 10.4 °F 18.0 °F 85% 29.43 in 1.2 mi WNW 11.5 mph - 0.00 in Snow Light Snow
3:14 AM 21.9 °F 9.8 °F 18.0 °F 85% 29.41 in 3.0 mi NW 12.7 mph - 0.00 in Snow Light Snow
3:21 AM 21.9 °F 10.4 °F 18.0 °F 85% 29.40 in 5.0 mi NW 11.5 mph - 0.00 in Snow Light Snow
3:54 AM 21.9 °F 8.7 °F 18.0 °F 85% 29.39 in 4.0 mi NW 15.0 mph 24.2 mph 0.00 in Snow Light Snow
4:05 AM 21.9 °F 9.2 °F 18.0 °F 85% 29.37 in 1.8 mi NW 13.8 mph 21.9 mph 0.00 in Snow Light Snow
4:23 AM 21.0 °F 8.6 °F 18.0 °F 88% 29.37 in 1.0 mi NW 12.7 mph - 0.00 in Snow Light Snow
4:38 AM 21.0 °F 8.6 °F 18.0 °F 88% 29.36 in 0.8 mi NW 12.7 mph - 0.01 in Snow Light Snow
4:54 AM 21.0 °F 8.1 °F 18.0 °F 88% 29.36 in 0.8 mi WNW 13.8 mph - 0.01 in Snow Light Snow
5:11 AM 21.0 °F 8.6 °F 19.0 °F 92% 29.34 in 0.5 mi NW 12.7 mph - 0.01 in Fog , Snow Snow
5:38 AM 21.9 °F 8.7 °F 18.0 °F 85% 29.32 in 1.0 mi NW 15.0 mph - 0.01 in Snow Light Snow
5:49 AM 21.2 °F 10.1 °F 17.6 °F 86% 29.32 in 0.5 mi WNW 10.4 mph - 0.02 in Fog , Snow Snow
5:54 AM 21.0 °F 8.1 °F 18.0 °F 88% 29.33 in 0.5 mi WNW 13.8 mph - 0.02 in Fog , Snow Snow
6:54 AM 21.0 °F 11.4 °F 18.0 °F 88% 29.31 in 0.8 mi WNW 8.1 mph - 0.05 in Snow Light Snow
7:14 AM 21.0 °F 10.6 °F 18.0 °F 88% 29.30 in 1.0 mi WNW 9.2 mph - 0.01 in Snow Light Snow
7:22 AM 21.0 °F 11.4 °F 18.0 °F 88% 29.30 in 0.8 mi WNW 8.1 mph - 0.02 in Snow Light Snow
7:35 AM 21.0 °F 11.4 °F 18.0 °F 88% 29.28 in 0.2 mi WNW 8.1 mph - 0.03 in Fog , Snow Heavy Snow
7:54 AM 21.0 °F 11.4 °F 18.0 °F 88% 29.29 in 0.5 mi WNW 8.1 mph - 0.04 in Fog , Snow Snow
8:06 AM 21.0 °F 11.4 °F 19.0 °F 92% 29.28 in 0.2 mi WNW 8.1 mph - 0.02 in Fog , Snow Heavy Snow
8:54 AM 21.0 °F 10.6 °F 19.0 °F 92% 29.29 in 0.2 mi WNW 9.2 mph - 0.08 in Fog , Snow Heavy Snow
9:54 AM 21.0 °F 9.3 °F 19.0 °F 92% 29.27 in 0.2 mi WNW 11.5 mph - 0.07 in Fog , Snow Heavy Snow
10:03 AM 21.9 °F 9.8 °F 19.0 °F 89% 29.26 in 0.2 mi WNW 12.7 mph - 0.01 in Fog , Snow Heavy Snow
10:40 AM 21.9 °F 12.5 °F 19.0 °F 89% 29.25 in 0.2 mi WNW 8.1 mph - 0.05 in Fog , Snow Snow
10:54 AM 21.9 °F 11.7 °F 19.0 °F 89% 29.26 in 0.2 mi WNW 9.2 mph - 0.07 in Fog , Snow Heavy Snow
11:54 AM 21.9 °F 11.0 °F 19.0 °F 89% 29.25 in 0.2 mi WNW 10.4 mph - 0.05 in Fog , Snow Heavy Snow
12:54 PM 21.9 °F 9.8 °F 19.9 °F 92% 29.24 in 0.2 mi WNW 12.7 mph - 0.05 in Fog , Snow Heavy Snow
1:54 PM 23.0 °F 10.6 °F 19.9 °F 88% 29.22 in 0.2 mi WNW 13.8 mph - 0.04 in Fog , Snow Heavy Snow
2:54 PM 23.0 °F 11.1 °F 19.9 °F 88% 29.19 in 0.2 mi WNW 12.7 mph - 0.04 in Fog , Snow Heavy Snow
3:54 PM 23.0 °F 10.1 °F 19.9 °F 88% 29.17 in 0.2 mi WNW 15.0 mph - 0.02 in Fog , Snow Heavy Snow
4:43 PM 23.0 °F 9.6 °F 21.0 °F 92% 29.13 in 0.5 mi WNW 16.1 mph - 0.00 in Fog , Snow Snow
4:54 PM 23.0 °F 9.6 °F 19.9 °F 88% 29.14 in 0.5 mi WNW 16.1 mph - 0.00 in Fog , Snow Snow
5:04 PM 23.0 °F 10.6 °F 19.9 °F 88% 29.13 in 0.2 mi NW 13.8 mph - 0.01 in Fog , Snow Heavy Snow
5:47 PM 23.0 °F 10.1 °F 21.0 °F 92% 29.12 in 0.8 mi NW 15.0 mph - 0.01 in Snow Light Snow
5:54 PM 23.0 °F 9.6 °F 19.9 °F 88% 29.12 in 0.8 mi WNW 16.1 mph - 0.01 in Snow Light Snow
6:10 PM 23.0 °F 9.6 °F 21.0 °F 92% 29.11 in 0.8 mi WNW 16.1 mph - 0.01 in Snow Light Snow
6:19 PM 23.0 °F 10.1 °F 21.0 °F 92% 29.11 in 1.0 mi WNW 15.0 mph - 0.01 in Snow Light Snow
6:30 PM 23.0 °F 10.1 °F 21.0 °F 92% 29.11 in 0.8 mi WNW 15.0 mph - 0.01 in Snow Light Snow
6:43 PM 24.1 °F 11.5 °F 21.0 °F 88% 29.10 in 0.8 mi WNW 15.0 mph 20.7 mph 0.01 in Snow Light Snow
6:54 PM 24.1 °F 11.5 °F 21.0 °F 88% 29.11 in 0.5 mi NW 15.0 mph 23.0 mph 0.01 in Fog , Snow Snow
7:10 PM 23.0 °F 9.6 °F 21.0 °F 92% 29.10 in 1.0 mi WNW 16.1 mph - 0.00 in Snow Light Snow
7:54 PM 24.1 °F 11.0 °F 21.0 °F 88% 29.11 in 1.2 mi WNW 16.1 mph - 0.00 in Snow Light Snow
8:07 PM 24.1 °F 11.0 °F 21.0 °F 88% 29.09 in 1.5 mi WNW 16.1 mph - 0.00 in Snow Light Snow
8:54 PM 24.1 °F 11.5 °F 21.0 °F 88% 29.11 in 1.0 mi WNW 15.0 mph - 0.00 in Snow Light Snow
9:54 PM 24.1 °F 12.5 °F 21.0 °F 88% 29.13 in 2.5 mi WNW 12.7 mph - 0.00 in Snow Light Snow
10:03 PM 24.1 °F 13.1 °F 21.0 °F 88% 29.12 in 4.0 mi WNW 11.5 mph - 0.00 in Snow Light Snow
10:54 PM 24.1 °F 13.1 °F 21.0 °F 88% 29.14 in 5.0 mi WNW 11.5 mph - 0.00 in Snow Light Snow
11:54 PM 24.1 °F 13.1 °F 21.0 °F 88% 29.17 in 3.0 mi WNW 11.5 mph - 0.00 in Snow Light Snow